Regional Weather Roundup
Issued by NWS Burlington, VT

Home | Current Version | Previous Version | Text Only | Print | Product List | Glossary On
Versions: 1 2 3 4 5 6 7 8 9 10 11 12 13 14 15 16 17 18 19 20 21 22 23 24 25 26 27 28 29 30 31 32 33 34 35 36 37 38 39 40 41 42 43 44 45 46 47 48 49 50
000
ASUS41 KBTV 311010
RWRBTV
VERMONT REGIONAL WEATHER ROUNDUP
NATIONAL WEATHER SERVICE BURLINGTON VT
600 AM EDT SUN JUL 31 2016

NOTE: "FAIR" INDICATES FEW OR NO CLOUDS BELOW 12,000 FEET WITH NO
SIGNIFICANT WEATHER AND/OR OBSTRUCTIONS TO VISIBILITY.

* THESE REPORTS ARE NOT UNDER NWS QUALITY CONTROL AND/OR DO NOT
  REPORT WEATHER SUCH AS PRECIPITATION AND FOG.

VTZ001>019-311100-
_____VERMONT_____


CITY           SKY/WX    TMP DP  RH WIND       PRES   REMARKS
BURLINGTON     FAIR      58  53  84 NE6       30.10R
MONTPELIER     FOG       54  54 100 CALM      30.16R VSB 1/4
MORRISVILLE    FOG       51  50  96 CALM      30.14S VSB<1/4
ST. JOHNSBURY*   N/A     54  50  86 MISG      30.12R
LYNDONVILLE*   FAIR      51  49  96 CALM      30.15R
MIDDLEBURY*    FAIR      58  58 100 CALM      30.08S
RUTLAND*       LGT RAIN  64  59  83 E3        30.09S
SPRINGFIELD    LGT RAIN  62  60  93 CALM      30.10F
HIGHGATE*      FAIR      55  53  91 SE3       30.10R
NEWPORT*       FAIR      49  49  98 CALM      30.15R
BENNINGTON     LGT RAIN  64  61  90 VRB5      30.07R
SUTTON*          N/A     54 N/A N/A MISG        N/A

_____LAKE CHAMPLAIN_____


CITY           SKY/WX    TMP DP  RH WIND       PRES   REMARKS
BURTON ISLAND*   N/A     63  59  88 E2          N/A
COLCHESTER RF*   N/A     63  57  82 NW9         N/A
DIAMOND ISL*     N/A     66  61  82 NW9         N/A

$$

NYZ007-026>031-035-052-083-087-311100-
_____NORTHERN NEW YORK_____


CITY           SKY/WX    TMP DP  RH WIND       PRES   REMARKS
PLATTSBURGH    CLOUDY    53  51  93 CALM      30.09R
SARANAC LAKE   CLEAR     43  41  93 CALM      30.10S
MASSENA        PTCLDY    53  50  89 CALM      30.09R
OGDENSBURG*    CLEAR     55  54  94 CALM      30.07R
POTSDAM*       CLEAR     57  55  94 CALM      30.08R
WATERTOWN      CLOUDY    64  58  80 NE7       30.03R
FT DRUM        CLOUDY    64  56  75 SE9       30.05R
ALBANY         HVY RAIN  63  61  93 N6        30.05R FOG
GLENS FALLS    LGT RAIN  64  60  87 N3        30.06R

$$
NHZ002-005-011-311100-
_____NEW HAMPSHIRE_____


CITY           SKY/WX    TMP DP  RH WIND       PRES   REMARKS
LEBANON        CLOUDY    64  59  83 NE5       30.10S
KEENE          LGT RAIN  65  63  93 N5        30.09R
MT WASHINGTON  PTCLDY    46  43  87 SW10        N/A
PLYMOUTH       CLOUDY    59  58  95 CALM      30.11S
WHITEFIELD     CLOUDY    50  47  89 CALM      30.14R

$$

_____REGIONAL QUEBEC LOCATIONS_____


CITY           SKY/WX    TMP DP  RH WIND       PRES   REMARKS
MONTREAL       MOCLDY    61  55  82 W7        30.09R
QUEBEC CITY    PTCLDY    55  52  88 CALM      30.10R
SHERBROOKE     CLEAR     48  48 100 SE2       30.14R

_____REGIONAL ONTARIO LOCATIONS_____


CITY           SKY/WX    TMP DP  RH WIND       PRES   REMARKS
OTTAWA         MOCLDY    57  55  94 NE8       30.09R

______KEY______
VSB  - VISIBILITY IN MILES
WCI  - WIND CHILL INDEX
HX   - HEAT INDEX
$$
NNNN




USA.gov is the U.S. government's official web portal to all federal, state and local government web resources and services.